PDT,Max TemperatureF,Mean TemperatureF,Min TemperatureF,Max Dew PointF,MeanDew PointF,Min DewpointF,Max Humidity, Mean Humidity, Min Humidity, Max Sea Level PressureIn, Mean Sea Level PressureIn, Min Sea Level PressureIn, Max VisibilityMiles, Mean VisibilityMiles, Min VisibilityMiles, Max Wind SpeedMPH, Mean Wind SpeedMPH, Max Gust SpeedMPH,PrecipitationIn, CloudCover, Events, WindDirDegrees
2012-10-1,81,57,33,41,36,29,82,53,23,30.34,30.19,30.08,10,7,1,9,3,13,0.00,0,,257
2012-10-2,75,54,32,43,30,16,96,56,16,30.13,30.03,29.96,10,10,5,30,9,38,0.00,1,,308
2012-10-3,59,43,27,22,17,13,59,40,21,30.33,30.27,30.14,10,10,9,20,10,24,T,0,Snow,311
2012-10-4,60,39,18,23,19,14,84,50,16,30.32,30.27,30.21,10,10,9,23,7,29,0.00,0,,299
2012-10-5,59,39,18,22,19,16,84,53,21,30.36,30.31,30.26,10,10,3,15,3,18,0.00,0,,274
2012-10-6,61,38,15,23,17,12,88,52,16,30.39,30.30,30.24,10,10,6,9,1,13,0.00,0,,264
2012-10-7,66,41,16,23,18,15,84,50,15,30.30,30.18,30.06,10,10,9,13,2,16,0.00,0,,105
2012-10-8,68,43,18,25,20,14,84,50,16,30.11,30.02,29.93,10,8,2,9,2,9,0.00,0,,284
2012-10-9,71,47,22,32,26,18,88,55,22,30.14,30.07,30.02,10,10,3,15,4,17,0.00,0,,300
2012-10-10,73,50,26,35,30,25,100,61,22,30.08,29.99,29.89,10,10,7,9,2,10,0.00,0,,291
2012-10-11,74,50,26,37,31,25,89,55,20,30.03,29.92,29.86,10,8,2,9,1,12,0.00,0,,226
2012-10-12,73,49,25,45,32,25,92,55,17,30.02,29.91,29.84,10,9,2,24,5,31,0.03,2,Rain,304
2012-10-13,65,51,37,48,43,35,100,70,40,30.27,30.19,30.01,10,10,4,13,3,16,T,5,Rain,194
2012-10-14,70,50,29,43,38,30,100,68,35,30.28,30.17,29.99,10,10,9,21,6,30,T,0,,123
2012-10-15,69,58,46,52,48,42,93,69,45,30.06,29.95,29.75,10,10,10,23,8,31,0.07,6,Rain,145
2012-10-16,61,48,34,54,35,22,80,54,27,30.19,29.91,29.66,10,10,10,32,16,45,0.02,2,Rain,295
2012-10-17,56,38,19,32,27,19,100,66,32,30.35,30.30,30.22,10,10,10,8,2,13,0.00,0,,228
2012-10-18,63,42,20,32,27,20,96,63,30,30.39,30.25,30.05,10,10,9,23,7,28,0.00,0,,104
2012-10-19,59,48,37,45,34,27,100,69,37,30.04,29.93,29.81,10,7,0,18,3,22,0.11,6,Rain,94
2012-10-20,47,37,26,44,35,26,100,75,49,29.93,29.86,29.78,10,9,2,21,7,26,0.03,5,Rain,333
2012-10-21,51,35,18,30,24,18,100,70,39,29.98,29.90,29.83,10,8,0,12,3,14,0.00,1,Fog,78
2012-10-22,45,32,19,36,28,18,96,77,57,29.82,29.68,29.57,10,10,8,21,6,28,0.02,5,Rain,67
2012-10-23,46,32,18,34,30,20,100,75,49,30.02,29.84,29.72,10,10,8,14,1,16,0.01,6,Rain-Snow,268
2012-10-24,41,28,15,32,26,15,100,85,70,30.18,30.04,29.94,10,6,0,18,7,23,0.08,6,Fog-Rain-Snow,95
2012-10-25,41,32,23,37,31,23,100,85,70,30.50,30.33,30.13,10,8,0,13,2,16,0.03,6,Fog,194
2012-10-26,40,31,21,31,28,22,92,81,70,30.48,30.30,30.15,10,10,9,23,7,31,T,5,Rain-Snow,107
2012-10-27,41,33,24,37,30,22,100,93,85,30.24,30.15,30.06,10,5,0,23,6,28,0.17,7,Fog-Rain-Snow,97
2012-10-28,45,40,35,45,40,34,100,93,86,30.12,30.06,30.00,10,7,2,8,1,12,0.06,8,Rain,155
2012-10-29,56,47,38,52,43,37,100,83,66,30.15,30.05,29.98,10,3,0,13,4,16,0.06,6,Fog-Rain,330
2012-10-30,63,51,39,47,42,39,100,78,55,30.13,30.05,29.96,10,8,0,18,7,23,0.00,2,Fog,93
2012-10-31,61,52,42,40,36,32,76,56,36,29.93,29.86,29.78,10,10,10,17,8,22,0.00,2,,111